Skip Page Navigation
NASA JPL Caltech
NASA Logo - Jet Propulsion Laboratory + View the NASA Portal
+ Center for Near-Earth Object Studies
JPL Home Earth Solar System Stars & Galaxies Technology
JPL Solar System Dynamics
BODIES ORBITS EPHEMERIDES TOOLS PHYSICAL DATA DISCOVERY FAQ SITE MAP
IMPORTANT: The SSD Announcement email list is now available. Major changes are coming in the near future, including possible hostname and/or URL changes. To be notified of such changes, subscribe to this email list.

Please visit this page for more details.


JPL Small-Body Database Browser
Search: [ help ]  
359475 (2010 OO10)
Classification: Main-belt Asteroid          SPK-ID: 2359475
Ephemeris | Orbit Diagram | Orbital Elements | Mission Design | Physical Parameters | Discovery Circumstances ]

[ show orbit diagram ]
Orbital Elements at Epoch 2458600.5 (2019-Apr-27.0) TDB
Reference: JPL 11 (heliocentric ecliptic J2000)
 Element Value Uncertainty (1-sigma)   Units 
e .05975047668622501 1.1651e-07  
a 2.980519511981819 7.3034e-08 au
q 2.802432050368311 3.3641e-07 au
i 15.2767564014125 1.0341e-05 deg
node 358.5957543445678 2.43e-05 deg
peri 14.86798618145432 7.515e-05 deg
M 246.3347815935796 6.5318e-05 deg
tp 2459193.919031996066
(2020-Dec-10.41903200)
0.00034302 TDB
period 1879.474253546296
5.15
6.9081e-05
1.891e-07
d
yr
n .1915429271354646 7.0403e-09 deg/d
Q 3.158606973595327 7.7398e-08 au
  Orbit Determination Parameters
   # obs. used (total)      181  
   data-arc span      4565 days (12.50 yr)  
   first obs. used      2005-10-23  
   last obs. used      2018-04-23  
   planetary ephem.      DE431  
   SB-pert. ephem.      SB431-N16  
   condition code      0  
   norm. resid. RMS      .70345  
   source      ORB  
   producer      Otto Matic  
   solution date      2018-Oct-04 11:21:43  

Additional Information
 Earth MOID = 1.80239 au 
 Jupiter MOID = 2.15619 au 
 T_jup = 3.203 
[ show covariance matrix ]

Ephemeris | Orbit Diagram | Orbital Elements | Mission Design | Physical Parameters | Discovery Circumstances ]

Physical Parameter Table
Parameter Symbol Value Units Sigma Reference Notes
absolute magnitude H 15.9   n/a MPO440610  
diameter diameter 3.140 km 0.993 urn:nasa:pds:neowise_diameters_albedos::2.0[mainbelt] (http://adsabs.harvard.edu/abs/2011ApJ...741...68M)  
geometric albedo albedo 0.124   0.066 urn:nasa:pds:neowise_diameters_albedos::2.0[mainbelt] (http://adsabs.harvard.edu/abs/2011ApJ...741...68M)  

359475 (2010 OO10)          Discovered 2005-Oct-23 by CSS at Catalina
Reference: 20130327/Numbers.arcLast Updated: 2013-03-29

Alternate Designations
 2010 OO10 = 2005 UZ455 
Ephemeris | Orbit Diagram | Orbital Elements | Mission Design | Physical Parameters | Discovery Circumstances ]
ABOUT SSD CREDITS/AWARDS PRIVACY/COPYRIGHT GLOSSARY LINKS
FirstGov
(server date/time)  
NASA Home Page
Site Manager:   Ryan S. Park
Webmaster  Alan B. Chamberlin